TOM901 EGHH-EGFF

Flight info

Callsign TOM901
Flight time 0h 28m
Altitude 17000
Route SAM Q41 PEPIS/N0377F160 Y321 NUBRI N14 HEKXA Q63 SAWPE
Aircraft B738/M-SDE2E3FGHIRWXY/LB1

Departure

Time 2026-04-28 20:35
Airport Bournemouth Airport (EGHH)

Arrival

Time 2026-04-28 21:03
Airport Cardiff International Airport (EGFF)
Time Latitude Longitude Altitude Speed Heading
2026-04-28 20:35 50.91508 -1.45668 11328 ft 315 kts 63°
2026-04-28 20:35 50.92597 -1.42630 12076 ft 318 kts 63°
2026-04-28 20:36 50.93760 -1.39378 12908 ft 321 kts 64°
2026-04-28 20:36 50.95051 -1.36475 13793 ft 326 kts 50°
2026-04-28 20:36 50.96850 -1.34263 14742 ft 329 kts 36°
2026-04-28 20:36 50.98954 -1.32906 15661 ft 333 kts 22°
2026-04-28 20:37 51.01187 -1.31976 16546 ft 331 kts 21°
2026-04-28 20:37 51.03377 -1.31118 17014 ft 328 kts 21°
2026-04-28 20:37 51.05600 -1.30242 17252 ft 332 kts 21°
2026-04-28 20:37 51.07845 -1.29335 17232 ft 333 kts 21°
2026-04-28 20:38 51.10079 -1.28422 17233 ft 330 kts 21°
2026-04-28 20:38 51.12288 -1.27506 17240 ft 328 kts 21°
2026-04-28 20:38 51.14488 -1.26588 17260 ft 326 kts 21°
2026-04-28 20:38 51.16685 -1.25668 17266 ft 326 kts 21°
2026-04-28 20:39 51.18876 -1.24754 17270 ft 327 kts 20°
2026-04-28 20:39 51.21147 -1.24185 17261 ft 334 kts 11°
2026-04-28 20:39 51.23483 -1.24001 17263 ft 336 kts
2026-04-28 20:39 51.25823 -1.23845 17267 ft 338 kts
2026-04-28 20:40 51.28226 -1.23661 17282 ft 355 kts
2026-04-28 20:40 51.30757 -1.23446 17291 ft 374 kts
2026-04-28 20:40 51.33411 -1.23198 17290 ft 389 kts 11°
2026-04-28 20:40 51.36097 -1.22487 17273 ft 392 kts 19°
2026-04-28 20:41 51.38752 -1.21459 17266 ft 393 kts 19°
2026-04-28 20:41 51.41412 -1.20452 17279 ft 393 kts 19°
2026-04-28 20:41 51.44077 -1.19472 17279 ft 393 kts 18°
2026-04-28 20:41 51.46828 -1.19120 17279 ft 405 kts 360°
2026-04-28 20:42 51.49581 -1.20305 17291 ft 419 kts 340°
2026-04-28 20:42 51.52012 -1.22960 17286 ft 431 kts 319°
2026-04-28 20:42 51.53776 -1.26828 17290 ft 439 kts 298°
2026-04-28 20:42 51.54689 -1.31519 17313 ft 443 kts 282°
2026-04-28 20:43 51.55229 -1.36398 17301 ft 444 kts 280°
2026-04-28 20:43 51.55738 -1.41303 17295 ft 445 kts 280°
2026-04-28 20:43 51.56260 -1.46217 17303 ft 446 kts 281°
2026-04-28 20:43 51.56806 -1.51119 17308 ft 446 kts 281°
2026-04-28 20:44 51.57369 -1.56017 17303 ft 441 kts 282°
2026-04-28 20:44 51.57921 -1.60778 17285 ft 425 kts 282°
2026-04-28 20:44 51.58448 -1.65362 17292 ft 408 kts 281°
2026-04-28 20:44 51.58851 -1.69789 17294 ft 393 kts 278°
2026-04-28 20:45 51.59159 -1.74076 17243 ft 381 kts 277°
2026-04-28 20:45 51.59439 -1.78292 16983 ft 375 kts 277°
2026-04-28 20:45 51.59719 -1.82446 16685 ft 371 kts 277°
2026-04-28 20:45 51.60004 -1.86563 16371 ft 368 kts 277°
2026-04-28 20:46 51.60290 -1.90590 16054 ft 365 kts 277°
2026-04-28 20:46 51.60579 -1.94632 15734 ft 362 kts 277°
2026-04-28 20:46 51.60865 -1.98657 15419 ft 360 kts 277°
2026-04-28 20:46 51.61041 -2.02651 15079 ft 358 kts 265°
2026-04-28 20:47 51.60478 -2.06498 14806 ft 350 kts 244°
2026-04-28 20:47 51.59237 -2.09777 14573 ft 339 kts 228°
2026-04-28 20:47 51.57776 -2.12716 14286 ft 336 kts 226°
2026-04-28 20:47 51.56293 -2.15607 13956 ft 334 kts 226°
2026-04-28 20:48 51.54817 -2.18482 13601 ft 332 kts 226°
2026-04-28 20:48 51.53356 -2.21353 13279 ft 331 kts 227°
2026-04-28 20:48 51.51911 -2.24213 12953 ft 329 kts 227°
2026-04-28 20:48 51.50479 -2.27060 12638 ft 327 kts 227°
2026-04-28 20:49 51.49061 -2.29887 12322 ft 325 kts 227°
2026-04-28 20:49 51.47649 -2.32702 12009 ft 323 kts 227°
2026-04-28 20:49 51.46246 -2.35499 11701 ft 321 kts 227°
2026-04-28 20:49 51.44849 -2.38283 11390 ft 320 kts 227°
2026-04-28 20:50 51.43473 -2.41020 11089 ft 318 kts 227°
2026-04-28 20:50 51.42086 -2.43774 10778 ft 317 kts 227°
2026-04-28 20:50 51.40840 -2.46677 10454 ft 319 kts 245°
2026-04-28 20:50 51.40281 -2.50070 10371 ft 311 kts 259°
2026-04-28 20:51 51.39944 -2.53470 10090 ft 309 kts 261°
2026-04-28 20:51 51.39631 -2.56869 9775 ft 308 kts 261°
2026-04-28 20:51 51.39309 -2.60264 9467 ft 307 kts 261°
2026-04-28 20:51 51.39084 -2.62546 9268 ft 307 kts 260°
2026-04-28 20:52 51.38632 -2.67003 8870 ft 305 kts 260°
2026-04-28 20:52 51.38290 -2.70344 8581 ft 304 kts 261°
2026-04-28 20:52 51.38245 -2.73704 8266 ft 302 kts 279°
2026-04-28 20:52 51.38566 -2.77014 7989 ft 300 kts 281°
2026-04-28 20:53 51.39257 -2.83572 7408 ft 297 kts 281°
2026-04-28 20:53 51.39593 -2.86830 7121 ft 296 kts 281°
2026-04-28 20:53 51.39922 -2.90084 6836 ft 296 kts 281°
2026-04-28 20:54 51.40241 -2.93297 6466 ft 298 kts 281°
2026-04-28 20:54 51.40568 -2.96624 5976 ft 304 kts 281°
2026-04-28 20:54 51.40896 -2.99993 5604 ft 306 kts 281°
2026-04-28 20:54 51.41220 -3.03346 5292 ft 305 kts 281°
2026-04-28 20:55 51.41542 -3.06698 4994 ft 303 kts 281°
2026-04-28 20:55 51.41860 -3.10029 4686 ft 302 kts 281°
2026-04-28 20:55 51.42176 -3.13344 4393 ft 300 kts 281°
2026-04-28 20:55 51.42490 -3.16644 4161 ft 297 kts 281°
2026-04-28 20:56 51.42795 -3.19874 4035 ft 290 kts 281°
2026-04-28 20:56 51.43093 -3.23034 3907 ft 283 kts 281°
2026-04-28 20:56 51.43385 -3.26124 3792 ft 277 kts 281°
2026-04-28 20:56 51.43784 -3.29101 3600 ft 271 kts 287°
2026-04-28 20:57 51.44174 -3.32055 3347 ft 270 kts 285°
2026-04-28 20:57 51.44609 -3.34977 3081 ft 268 kts 287°
2026-04-28 20:57 51.45059 -3.37875 2839 ft 267 kts 288°
2026-04-28 20:57 51.45490 -3.40714 2773 ft 254 kts 288°
2026-04-28 20:58 51.45890 -3.43395 2736 ft 240 kts 288°
2026-04-28 20:58 51.46255 -3.45880 2755 ft 227 kts 288°
2026-04-28 20:58 51.46603 -3.48322 2755 ft 224 kts 288°
2026-04-28 20:58 51.46924 -3.50783 2517 ft 226 kts 279°
2026-04-28 20:59 51.46626 -3.53186 2256 ft 218 kts 233°
2026-04-28 20:59 51.45532 -3.54488 2183 ft 185 kts 179°
2026-04-28 20:59 51.44403 -3.54105 2213 ft 158 kts 127°
2026-04-28 20:59 51.44012 -3.52663 2133 ft 139 kts 85°
2026-04-28 21:00 51.43919 -3.51126 2023 ft 139 kts 91°
2026-04-28 21:00 51.43834 -3.50119 2034 ft 134 kts 90°
2026-04-28 21:00 51.43728 -3.48677 1993 ft 125 kts 90°
2026-04-28 21:00 51.43557 -3.47313 1838 ft 126 kts 100°
2026-04-28 21:01 51.43150 -3.45548 1640 ft 131 kts 102°
2026-04-28 21:01 51.42763 -3.44178 1452 ft 137 kts 107°
2026-04-28 21:01 51.42475 -3.43256 1324 ft 137 kts 107°
2026-04-28 21:01 51.42050 -3.41910 1101 ft 135 kts 107°
2026-04-28 21:02 51.41625 -3.40565 880 ft 135 kts 109°
2026-04-28 21:02 51.41199 -3.39233 744 ft 134 kts 108°
2026-04-28 21:02 51.40784 -3.37890 558 ft 137 kts 110°
2026-04-28 21:02 51.40349 -3.36542 389 ft 135 kts 109°
2026-04-28 21:03 51.39933 -3.35199 219 ft 131 kts 109°
2026-04-28 21:03 51.39592 -3.34109 224 ft 80 kts 117°
2026-04-28 21:03 51.39436 -3.33616 221 ft 21 kts 116°
2026-04-28 21:03 51.39370 -3.33406 224 ft 22 kts 117°
2026-04-28 21:04 51.39297 -3.33173 222 ft 15 kts 110°
2026-04-28 21:04 51.39320 -3.33090 221 ft 7 kts 31°
2026-04-28 21:04 51.39366 -3.33045 220 ft 9 kts 32°
2026-04-28 21:04 51.39388 -3.33026 220 ft 3 kts 12°
2026-04-28 21:05 51.39435 -3.33054 219 ft 8 kts 324°
2026-04-28 21:05 51.39467 -3.33133 222 ft 8 kts 298°
2026-04-28 21:05 51.39516 -3.33282 220 ft 12 kts 298°
2026-04-28 21:05 51.39559 -3.33412 218 ft 14 kts 297°
2026-04-28 21:06 51.39601 -3.33544 219 ft 13 kts 297°
2026-04-28 21:06 51.39640 -3.33674 222 ft 13 kts 296°
2026-04-28 21:06 51.39680 -3.33801 221 ft 13 kts 297°
2026-04-28 21:06 51.39720 -3.33926 220 ft 13 kts 297°
2026-04-28 21:07 51.39767 -3.34075 223 ft 17 kts 296°
2026-04-28 21:07 51.39809 -3.34213 226 ft 9 kts 296°
2026-04-28 21:07 51.39865 -3.34252 223 ft 9 kts 356°
2026-04-28 21:07 51.39922 -3.34230 223 ft 7 kts 40°
2026-04-28 21:08 51.39925 -3.34210 222 ft 3 kts 98°
2026-04-28 21:08 51.39915 -3.34167 223 ft 6 kts 115°
2026-04-28 21:08 51.39911 -3.34154 222 ft 0 kts 116°